{"data":{"norad_id":65811,"epoch":"2026-05-25T03:03:14.405184Z","epoch_age_seconds":57278,"freshness":"FRESH","line1":"1 65811U 25218W   26145.12725006  .00001683  00000+0  12065-3 0  9994","line2":"2 65811  97.4497   7.9528 0002768  88.3575 271.7969 15.05654863 36477","mean_motion":15.05654863,"eccentricity":0.0002768,"inclination_deg":97.4497,"raan_deg":7.9528,"arg_perigee_deg":88.3575,"mean_anomaly_deg":271.7969,"bstar":0.00012065,"rev_number":3647,"period_min":95.639448016049,"perigee_km":547.5786684288,"apogee_km":551.41380618897,"semimajor_km":6927.6332373089,"source":"CELESTRAK","updated_at":"2026-05-25T13:38:20.940282Z"}}